ENT53 ESGG-ESNS

Flight info

Callsign ENT53
Flight time 1h 19m
Altitude 39000
Route SULIX3J NEGIL M852 OGIRO DCT LEGPO DCT DEGED DCT OSK DCT SOPLI DCT
Aircraft B738/M-SDE2E3FGHIRWXY/LB1

Departure

Time 2026-05-07 16:58
Airport Göteborg Landvetter Airport (ESGG)

Arrival

Time 2026-05-07 18:17
Airport Skellefteå Airport (ESNS)
Time Latitude Longitude Altitude Speed Heading
2026-05-07 16:08 57.66975 12.29494 510 ft 0 kts 115°
2026-05-07 16:51 57.66980 12.29478 510 ft 2 kts 115°
2026-05-07 16:51 57.66986 12.29452 509 ft 2 kts 115°
2026-05-07 16:51 57.66992 12.29427 509 ft 2 kts 115°
2026-05-07 16:52 57.66999 12.29401 508 ft 2 kts 123°
2026-05-07 16:52 57.67011 12.29386 508 ft 2 kts 173°
2026-05-07 16:52 57.67021 12.29388 508 ft 0 kts 203°
2026-05-07 16:52 57.67028 12.29395 508 ft 0 kts 206°
2026-05-07 16:54 57.67024 12.29391 508 ft 3 kts 206°
2026-05-07 16:55 57.66981 12.29327 507 ft 10 kts 251°
2026-05-07 16:55 57.67010 12.29205 507 ft 10 kts 305°
2026-05-07 16:55 57.67076 12.29214 507 ft 13 kts 27°
2026-05-07 16:55 57.67174 12.29304 507 ft 18 kts 24°
2026-05-07 16:56 57.67289 12.29409 508 ft 17 kts 28°
2026-05-07 16:56 57.67386 12.29481 509 ft 13 kts 355°
2026-05-07 16:56 57.67458 12.29214 507 ft 11 kts 262°
2026-05-07 16:57 57.67440 12.29067 507 ft 11 kts 243°
2026-05-07 16:57 57.67371 12.28969 507 ft 18 kts 204°
2026-05-07 16:57 57.67058 12.28684 505 ft 89 kts 206°
2026-05-07 16:57 57.66280 12.27979 517 ft 156 kts 206°
2026-05-07 16:58 57.65240 12.27044 1140 ft 170 kts 208°
2026-05-07 16:58 57.64200 12.26127 2026 ft 178 kts 207°
2026-05-07 16:58 57.63032 12.25142 2683 ft 188 kts 201°
2026-05-07 16:58 57.61708 12.24907 3226 ft 205 kts 164°
2026-05-07 16:59 57.60380 12.26014 3878 ft 216 kts 150°
2026-05-07 16:59 57.59074 12.27418 4623 ft 222 kts 144°
2026-05-07 16:59 57.57923 12.29351 5461 ft 224 kts 126°
2026-05-07 16:59 57.57284 12.31900 6290 ft 224 kts 101°
2026-05-07 17:00 57.57225 12.34853 6904 ft 236 kts 81°
2026-05-07 17:00 57.57687 12.37849 7547 ft 247 kts 68°
2026-05-07 17:00 57.58360 12.40852 8262 ft 254 kts 66°
2026-05-07 17:00 57.59055 12.43863 8946 ft 263 kts 62°
2026-05-07 17:01 57.60232 12.46512 9700 ft 269 kts 32°
2026-05-07 17:01 57.61954 12.47860 10304 ft 281 kts 12°
2026-05-07 17:01 57.63921 12.48600 10876 ft 296 kts
2026-05-07 17:01 57.65992 12.49406 11382 ft 313 kts 11°
2026-05-07 17:02 57.68165 12.50438 11885 ft 329 kts 13°
2026-05-07 17:02 57.70401 12.51629 12466 ft 342 kts 14°
2026-05-07 17:02 57.72713 12.52922 13236 ft 350 kts 15°
2026-05-07 17:02 57.75055 12.54248 14063 ft 355 kts 14°
2026-05-07 17:03 57.77437 12.55597 14880 ft 360 kts 14°
2026-05-07 17:03 57.79818 12.56938 15664 ft 364 kts 14°
2026-05-07 17:03 57.82270 12.58315 16465 ft 367 kts 14°
2026-05-07 17:03 57.84713 12.59683 17200 ft 372 kts 13°
2026-05-07 17:04 57.87203 12.61077 17962 ft 375 kts 13°
2026-05-07 17:04 57.89717 12.62486 18674 ft 379 kts 13°
2026-05-07 17:04 57.92226 12.63893 19341 ft 384 kts 13°
2026-05-07 17:04 57.94776 12.65325 20022 ft 388 kts 13°
2026-05-07 17:05 57.97363 12.66780 20674 ft 392 kts 13°
2026-05-07 17:05 57.99979 12.68253 21299 ft 396 kts 13°
2026-05-07 17:05 58.02622 12.69745 21927 ft 400 kts 13°
2026-05-07 17:05 58.05302 12.71260 22534 ft 404 kts 13°
2026-05-07 17:06 58.07974 12.72774 23119 ft 407 kts 13°
2026-05-07 17:06 58.10720 12.74331 23670 ft 412 kts 13°
2026-05-07 17:06 58.13445 12.75880 24257 ft 415 kts 13°
2026-05-07 17:06 58.16223 12.77463 24888 ft 416 kts 13°
2026-05-07 17:07 58.19001 12.79048 25416 ft 420 kts 13°
2026-05-07 17:07 58.21818 12.80657 26012 ft 422 kts 13°
2026-05-07 17:07 58.24638 12.82272 26584 ft 424 kts 13°
2026-05-07 17:07 58.27453 12.83885 27134 ft 427 kts 12°
2026-05-07 17:08 58.30295 12.85516 27614 ft 430 kts 12°
2026-05-07 17:08 58.33160 12.87164 28130 ft 432 kts 12°
2026-05-07 17:08 58.36049 12.88828 28634 ft 435 kts 12°
2026-05-07 17:08 58.38960 12.90508 29103 ft 438 kts 12°
2026-05-07 17:09 58.41855 12.92180 29551 ft 440 kts 12°
2026-05-07 17:09 58.44838 12.93905 29978 ft 444 kts 12°
2026-05-07 17:09 58.47769 12.95605 30399 ft 447 kts 12°
2026-05-07 17:09 58.50743 12.97334 30954 ft 446 kts 12°
2026-05-07 17:10 58.53706 12.99065 31670 ft 441 kts 12°
2026-05-07 17:10 58.56614 13.00769 32268 ft 438 kts 12°
2026-05-07 17:10 58.59487 13.02451 32796 ft 436 kts 11°
2026-05-07 17:10 58.62409 13.04164 33285 ft 435 kts 11°
2026-05-07 17:11 58.65278 13.05847 33759 ft 434 kts 11°
2026-05-07 17:11 58.68147 13.07532 34219 ft 433 kts 11°
2026-05-07 17:11 58.71028 13.09226 34664 ft 432 kts 11°
2026-05-07 17:11 58.73912 13.10936 35033 ft 431 kts 12°
2026-05-07 17:12 58.76714 13.12840 35267 ft 435 kts 15°
2026-05-07 17:12 58.79508 13.15141 35450 ft 440 kts 19°
2026-05-07 17:12 58.82285 13.17707 35650 ft 442 kts 20°
2026-05-07 17:12 58.85022 13.20379 35804 ft 444 kts 21°
2026-05-07 17:13 58.87785 13.23140 35960 ft 446 kts 22°
2026-05-07 17:13 58.90513 13.25890 36124 ft 447 kts 22°
2026-05-07 17:13 58.93254 13.28659 36302 ft 447 kts 22°
2026-05-07 17:13 58.96014 13.31445 36503 ft 449 kts 22°
2026-05-07 17:14 58.98798 13.34251 36703 ft 451 kts 22°
2026-05-07 17:14 59.01566 13.37039 36916 ft 452 kts 22°
2026-05-07 17:14 59.04322 13.39815 37144 ft 452 kts 22°
2026-05-07 17:14 59.07108 13.42621 37367 ft 453 kts 22°
2026-05-07 17:15 59.09883 13.45417 37548 ft 454 kts 22°
2026-05-07 17:15 59.12724 13.48281 37730 ft 455 kts 22°
2026-05-07 17:15 59.15535 13.51118 37899 ft 457 kts 22°
2026-05-07 17:15 59.18323 13.53938 38098 ft 458 kts 23°
2026-05-07 17:16 59.21162 13.56815 38265 ft 459 kts 22°
2026-05-07 17:16 59.23971 13.59666 38426 ft 460 kts 23°
2026-05-07 17:16 59.26835 13.62579 38603 ft 461 kts 23°
2026-05-07 17:16 59.29643 13.65438 38764 ft 462 kts 24°
2026-05-07 17:17 59.32466 13.68319 38932 ft 462 kts 24°
2026-05-07 17:17 59.35319 13.71236 39047 ft 463 kts 24°
2026-05-07 17:17 59.40508 13.76555 39062 ft 465 kts 24°
2026-05-07 17:18 59.46209 13.82421 39052 ft 463 kts 24°
2026-05-07 17:18 59.51917 13.88314 39061 ft 464 kts 24°
2026-05-07 17:19 59.57621 13.94228 39044 ft 465 kts 24°
2026-05-07 17:19 59.63345 14.00185 39042 ft 464 kts 24°
2026-05-07 17:20 59.69031 14.06125 39047 ft 465 kts 24°
2026-05-07 17:20 59.74736 14.12107 39042 ft 464 kts 24°
2026-05-07 17:21 59.80394 14.18065 39041 ft 464 kts 24°
2026-05-07 17:21 59.86083 14.24077 39045 ft 465 kts 24°
2026-05-07 17:22 59.91756 14.30096 39046 ft 464 kts 24°
2026-05-07 17:22 59.97454 14.36162 39043 ft 466 kts 24°
2026-05-07 17:23 60.03165 14.42268 39034 ft 466 kts 24°
2026-05-07 17:23 60.08861 14.48383 39035 ft 465 kts 24°
2026-05-07 17:24 60.14576 14.54541 39045 ft 466 kts 24°
2026-05-07 17:24 60.20278 14.60712 39041 ft 467 kts 24°
2026-05-07 17:25 60.25945 14.66871 39046 ft 466 kts 24°
2026-05-07 17:25 60.31652 14.73097 39032 ft 466 kts 24°
2026-05-07 17:26 60.37326 14.79312 39045 ft 467 kts 24°
2026-05-07 17:26 60.42998 14.85552 39040 ft 467 kts 24°
2026-05-07 17:27 60.48735 14.91884 39045 ft 468 kts 24°
2026-05-07 17:27 60.54338 14.98099 39044 ft 467 kts 24°
2026-05-07 17:28 60.60055 15.04463 39046 ft 468 kts 24°
2026-05-07 17:28 60.65735 15.10810 39044 ft 467 kts 24°
2026-05-07 17:29 60.71427 15.17196 39039 ft 468 kts 24°
2026-05-07 17:29 60.77101 15.23592 39035 ft 468 kts 24°
2026-05-07 17:30 60.82761 15.30002 39040 ft 469 kts 25°
2026-05-07 17:30 60.88463 15.36482 39042 ft 467 kts 25°
2026-05-07 17:31 60.94132 15.42943 39034 ft 467 kts 25°
2026-05-07 17:31 60.99802 15.49432 39041 ft 468 kts 25°
2026-05-07 17:32 61.05446 15.55921 39045 ft 466 kts 25°
2026-05-07 17:32 61.11123 15.62475 39047 ft 467 kts 25°
2026-05-07 17:33 61.16765 15.69014 39042 ft 467 kts 26°
2026-05-07 17:33 61.22422 15.75598 39044 ft 467 kts 25°
2026-05-07 17:34 61.28059 15.82187 39031 ft 467 kts 26°
2026-05-07 17:34 61.33699 15.88810 39036 ft 466 kts 26°
2026-05-07 17:35 61.39344 15.95461 39041 ft 467 kts 26°
2026-05-07 17:35 61.44982 16.02137 39056 ft 466 kts 25°
2026-05-07 17:36 61.50605 16.08820 39056 ft 468 kts 25°
2026-05-07 17:36 61.56243 16.15553 39055 ft 467 kts 25°
2026-05-07 17:37 61.61872 16.22303 39064 ft 468 kts 25°
2026-05-07 17:37 61.67492 16.29067 39064 ft 467 kts 25°
2026-05-07 17:38 61.73120 16.35869 39078 ft 468 kts 26°
2026-05-07 17:38 61.78737 16.42687 39076 ft 468 kts 25°
2026-05-07 17:39 61.84378 16.49565 39078 ft 467 kts 25°
2026-05-07 17:39 61.89990 16.56435 39069 ft 468 kts 25°
2026-05-07 17:40 61.95597 16.63329 39067 ft 468 kts 25°
2026-05-07 17:40 62.01220 16.70269 39074 ft 469 kts 26°
2026-05-07 17:41 62.06923 16.77343 39078 ft 470 kts 26°
2026-05-07 17:41 62.12466 16.84604 39080 ft 472 kts 31°
2026-05-07 17:42 62.17822 16.92943 39078 ft 473 kts 33°
2026-05-07 17:42 62.23046 17.01487 39080 ft 474 kts 34°
2026-05-07 17:43 62.28338 17.10150 39079 ft 474 kts 33°
2026-05-07 17:43 62.33602 17.18718 39082 ft 473 kts 33°
2026-05-07 17:44 62.38901 17.27315 39088 ft 474 kts 33°
2026-05-07 17:44 62.44210 17.35938 39085 ft 473 kts 33°
2026-05-07 17:45 62.49511 17.44573 39086 ft 473 kts 33°
2026-05-07 17:45 62.54750 17.53144 39091 ft 474 kts 33°
2026-05-07 17:46 62.60049 17.61852 39090 ft 473 kts 33°
2026-05-07 17:46 62.65295 17.70511 39081 ft 474 kts 34°
2026-05-07 17:47 62.70584 17.79283 39064 ft 473 kts 34°
2026-05-07 17:47 62.75827 17.88016 39060 ft 474 kts 34°
2026-05-07 17:48 62.81102 17.96846 39062 ft 474 kts 34°
2026-05-07 17:48 62.86370 18.05703 39060 ft 473 kts 34°
2026-05-07 17:49 62.91562 18.14472 39057 ft 473 kts 34°
2026-05-07 17:49 62.96785 18.23333 39059 ft 473 kts 34°
2026-05-07 17:50 63.02018 18.32254 39059 ft 473 kts 34°
2026-05-07 17:50 63.07225 18.41173 39054 ft 473 kts 34°
2026-05-07 17:51 63.12410 18.50095 39054 ft 473 kts 34°
2026-05-07 17:51 63.17627 18.59112 39052 ft 473 kts 34°
2026-05-07 17:52 63.22830 18.68147 39062 ft 473 kts 35°
2026-05-07 17:52 63.27981 18.77135 38942 ft 470 kts 35°
2026-05-07 17:53 63.30555 18.81647 38486 ft 467 kts 35°
2026-05-07 17:53 63.33116 18.86145 37767 ft 469 kts 35°
2026-05-07 17:53 63.35652 18.90603 37047 ft 470 kts 35°
2026-05-07 17:53 63.38217 18.95125 36368 ft 469 kts 34°
2026-05-07 17:54 63.40750 18.99604 35765 ft 466 kts 35°
2026-05-07 17:54 63.43241 19.04229 35252 ft 461 kts 37°
2026-05-07 17:54 63.45640 19.08986 34659 ft 457 kts 38°
2026-05-07 17:54 63.47941 19.13709 33916 ft 452 kts 39°
2026-05-07 17:55 63.50223 19.18467 33281 ft 445 kts 39°
2026-05-07 17:55 63.52454 19.23138 32713 ft 439 kts 38°
2026-05-07 17:55 63.54681 19.27800 32095 ft 434 kts 38°
2026-05-07 17:55 63.56895 19.32422 31532 ft 429 kts 38°
2026-05-07 17:56 63.59047 19.36906 30923 ft 426 kts 38°
2026-05-07 17:56 63.61237 19.41458 30082 ft 429 kts 38°
2026-05-07 17:56 63.63425 19.45992 29115 ft 432 kts 38°
2026-05-07 17:56 63.65627 19.50556 28127 ft 434 kts 38°
2026-05-07 17:57 63.67833 19.55134 27111 ft 434 kts 38°
2026-05-07 17:57 63.69304 19.58196 26421 ft 434 kts 38°
2026-05-07 17:57 63.72244 19.64325 24845 ft 431 kts 38°
2026-05-07 17:57 63.74430 19.68894 23550 ft 428 kts 40°
2026-05-07 17:58 63.76587 19.73416 22862 ft 417 kts 40°
2026-05-07 17:58 63.78699 19.77858 22545 ft 404 kts 40°
2026-05-07 17:58 63.80715 19.82108 22265 ft 392 kts 40°
2026-05-07 17:58 63.82688 19.86273 21958 ft 382 kts 40°
2026-05-07 17:59 63.84652 19.90423 21515 ft 375 kts 41°
2026-05-07 17:59 63.86538 19.94412 21049 ft 369 kts 41°
2026-05-07 17:59 63.88419 19.98396 20593 ft 364 kts 41°
2026-05-07 17:59 63.90234 20.02245 20154 ft 358 kts 41°
2026-05-07 18:00 63.92037 20.06078 19711 ft 352 kts 41°
2026-05-07 18:00 63.93819 20.09876 19271 ft 346 kts 41°
2026-05-07 18:00 63.95557 20.13586 18846 ft 339 kts 41°
2026-05-07 18:00 63.97269 20.17247 18427 ft 333 kts 41°
2026-05-07 18:01 63.98952 20.20855 18021 ft 327 kts 41°
2026-05-07 18:01 64.00611 20.24415 17609 ft 322 kts 41°
2026-05-07 18:01 64.02232 20.27900 17219 ft 316 kts 41°
2026-05-07 18:01 64.03830 20.31338 16822 ft 311 kts 41°
2026-05-07 18:02 64.06956 20.38063 16044 ft 302 kts 40°
2026-05-07 18:02 64.08488 20.41366 15673 ft 301 kts 40°
2026-05-07 18:02 64.10040 20.44723 15258 ft 305 kts 40°
2026-05-07 18:03 64.11577 20.48053 14908 ft 301 kts 40°
2026-05-07 18:03 64.13097 20.51358 14505 ft 297 kts 40°
2026-05-07 18:03 64.14571 20.54573 14133 ft 293 kts 40°
2026-05-07 18:03 64.16055 20.57811 13756 ft 292 kts 40°
2026-05-07 18:04 64.17529 20.61021 13401 ft 297 kts 40°
2026-05-07 18:04 64.19042 20.64329 13015 ft 294 kts 40°
2026-05-07 18:04 64.20517 20.67565 12628 ft 291 kts 41°
2026-05-07 18:04 64.21965 20.70748 12263 ft 289 kts 41°
2026-05-07 18:05 64.23493 20.73773 12013 ft 285 kts 33°
2026-05-07 18:05 64.25249 20.75937 11539 ft 288 kts 19°
2026-05-07 18:05 64.27160 20.77381 11126 ft 284 kts 14°
2026-05-07 18:05 64.29054 20.78645 10780 ft 280 kts 14°
2026-05-07 18:06 64.30924 20.79960 10404 ft 278 kts 15°
2026-05-07 18:06 64.32765 20.81346 10092 ft 274 kts 16°
2026-05-07 18:06 64.34549 20.82742 9950 ft 265 kts 16°
2026-05-07 18:06 64.36295 20.84128 9605 ft 266 kts 16°
2026-05-07 18:07 64.38042 20.85521 9285 ft 262 kts 17°
2026-05-07 18:07 64.39694 20.87216 9068 ft 265 kts 28°
2026-05-07 18:07 64.41034 20.90286 8635 ft 273 kts 58°
2026-05-07 18:07 64.41534 20.94507 8300 ft 276 kts 89°
2026-05-07 18:08 64.41294 20.98877 7992 ft 276 kts 97°
2026-05-07 18:08 64.41072 21.03322 7636 ft 274 kts 91°
2026-05-07 18:08 64.41021 21.07714 7303 ft 271 kts 86°
2026-05-07 18:08 64.41106 21.12045 6969 ft 269 kts 82°
2026-05-07 18:09 64.41315 21.16337 6654 ft 267 kts 78°
2026-05-07 18:09 64.41695 21.20506 6420 ft 261 kts 71°
2026-05-07 18:09 64.42243 21.24556 6447 ft 263 kts 67°
2026-05-07 18:09 64.42901 21.28501 6187 ft 264 kts 63°
2026-05-07 18:10 64.43700 21.32283 5844 ft 261 kts 57°
2026-05-07 18:10 64.44659 21.35889 5528 ft 258 kts 53°
2026-05-07 18:10 64.45702 21.39212 5229 ft 254 kts 49°
2026-05-07 18:10 64.46838 21.42320 4905 ft 251 kts 44°
2026-05-07 18:11 64.48077 21.45145 4639 ft 247 kts 39°
2026-05-07 18:11 64.48945 21.46901 4498 ft 243 kts 37°
2026-05-07 18:11 64.50725 21.49987 4225 ft 235 kts 31°
2026-05-07 18:11 64.52107 21.51940 3949 ft 233 kts 26°
2026-05-07 18:12 64.53550 21.53674 3676 ft 229 kts 21°
2026-05-07 18:12 64.55061 21.54259 3455 ft 221 kts 347°
2026-05-07 18:12 64.56386 21.52596 3275 ft 213 kts 311°
2026-05-07 18:12 64.57097 21.49640 3131 ft 207 kts 290°
2026-05-07 18:13 64.57520 21.46470 2948 ft 204 kts 288°
2026-05-07 18:13 64.57931 21.43351 2772 ft 196 kts 288°
2026-05-07 18:13 64.58328 21.40316 2570 ft 189 kts 288°
2026-05-07 18:13 64.58693 21.37463 2432 ft 180 kts 288°
2026-05-07 18:14 64.59049 21.34686 2174 ft 178 kts 288°
2026-05-07 18:14 64.59408 21.31890 1911 ft 176 kts 288°
2026-05-07 18:14 64.59738 21.29290 1699 ft 161 kts 288°
2026-05-07 18:14 64.60041 21.26920 1495 ft 146 kts 288°
2026-05-07 18:15 64.60320 21.24731 1292 ft 138 kts 287°
2026-05-07 18:15 64.60598 21.22551 1125 ft 141 kts 287°
2026-05-07 18:15 64.60876 21.20364 928 ft 139 kts 287°
2026-05-07 18:15 64.61152 21.18222 760 ft 136 kts 287°
2026-05-07 18:16 64.61428 21.16046 634 ft 139 kts 287°
2026-05-07 18:16 64.61697 21.13886 511 ft 139 kts 286°
2026-05-07 18:16 64.61977 21.11689 293 ft 138 kts 286°
2026-05-07 18:16 64.62243 21.09556 139 ft 132 kts 285°
2026-05-07 18:17 64.62444 21.07965 141 ft 62 kts 286°
2026-05-07 18:17 64.62533 21.07251 153 ft 37 kts 286°
2026-05-07 18:17 64.62566 21.06934 158 ft 10 kts 263°
2026-05-07 18:17 64.62517 21.06842 157 ft 6 kts 193°
2026-05-07 18:18 64.62465 21.06809 156 ft 10 kts 195°
2026-05-07 18:18 64.62412 21.06873 155 ft 3 kts 154°
2026-05-07 18:18 64.62392 21.06843 155 ft 4 kts 219°
2026-05-07 18:18 64.62376 21.06810 154 ft 1 kts 224°
2026-05-07 18:19 64.62371 21.06799 154 ft 0 kts 224°